AirNav   Everest Fuels
 
 1129 users online  

5Y3 Gutzmer's Twin Oaks Airport
Whitewater, Wisconsin, USA

GOING TO WHITEWATER?


FAA INFORMATION EFFECTIVE 30 JANUARY 2020

Location

FAA Identifier: 5Y3
Lat/Long: 42-51-12.8000N 088-45-35.3000W
42-51.213333N 088-45.588333W
42.8535556,-88.7598056
(estimated)
Elevation: 821 ft. / 250 m (estimated)
Variation: 00W (1985)
From city: 1 mile NW of WHITEWATER, WI
Time zone: UTC -6 (UTC -5 during Daylight Saving Time)
Zip code: 53190

Airport Operations

Airport use: Open to the public
Control tower: no
ARTCC: CHICAGO CENTER
FSS: GREEN BAY FLIGHT SERVICE STATION
NOTAMs facility: GRB (NOTAM-D service available)
Attendance: APR-NOV 0800-SS
Pattern altitude: 1621 ft. MSL
Wind indicator: yes
Segmented circle: no
Lights: SS-SR

Airport Communications

CTAF: 122.9
WX AWOS-3PT at 57C (17 nm E): 118.125 (262-642-1845)
WX AWOS-3 at JVL (19 nm SW): PHONE 608-758-1723
WX AWOS-3 at RYV (19 nm N): 119.975 (920-261-0734)

Nearby radio navigation aids

VOR radial/distance  VOR name  Freq  Var
JVLr038/23.4JANESVILLE VOR/DME114.3003E
BAEr231/26.2BADGER VOR/DME116.4002E
MSNr121/30.9MADISON VORTAC108.6003E

 
NDB name  Hdg/Dist  Freq  Var  ID
LAKE LAWN324/11.840402WLVV .-.. ...- ...-
ROCK RIVER186/19.337101WRYV .-. -.-- ...-
JUNEAU185/34.634401WUNU ..- -. ..-

Airport Services

Parking: tiedowns
Airframe service: NONE
Powerplant service: NONE
Bottled oxygen: NONE
Bulk oxygen: NONE

Runway Information

Runway 18/36

Dimensions: 2523 x 140 ft. / 769 x 43 m
Surface: turf, in good condition
Runway edge lights: non-standard
NSTD LIRL; LGTS FLUSH MOUNTED
Runway edge markings: 18/36 THLDS MKD WITH YELLOW CONES.
Gradient: S
RUNWAY 18  RUNWAY 36
Latitude: 42-51.420937N42-51.005545N
Longitude: 088-45.589023W088-45.588268W
Elevation: 800.6 ft.821.0 ft.
Traffic pattern: leftleft
Runway heading: 180 magnetic, 180 true000 magnetic, 360 true
Runway end identifier lights: nono
Touchdown point: yes, no lightsyes, no lights
Obstructions: 40 ft. trees, 685 ft. from runway, 125 ft. left of centerline, 17:1 slope to clear56 ft. tree, 845 ft. from runway, 130 ft. right of centerline, 15:1 slope to clear

Airport Ownership and Management from official FAA records

Ownership: Privately-owned
Owner: COLDSPRING AIRPORT LLC
N1190 COUNTY ROAD N
WHITEWATER, WI 53190
Phone (920) 723-1556
OTHER MAILING ADDRESS: N1190 COUNTY ROAD N.
Manager: MARCUS TINCHER
532 W MAIN ST
WHITEWATER, WI 53190
Phone (920) 723-1556
EMAIL ADDRESS: MARCUSTINCHER@TINCHERREALTY.COM (ALL LOWER CASE)

Airport Operational Statistics

Aircraft based on the field: 4
Single engine airplanes: 2
Ultralights: 2
    
Aircraft operations: avg 57/week *
73% local general aviation
27% transient general aviation
* for 12-month period ending 28 August 2019

Additional Remarks

RY 18/36 NOT PLOWED WINTERS. CLSD TO WHEELED ACFT WHEN RY SNOW COVERED.
EXTENSIVE ULTRALIGHT & HANG GLDR OPNS ON & INVOF.
FOR CD CTC CHICAGO ARTCC AT 630-906-8921.

Instrument Procedures

There are no published instrument procedures at 5Y3.

Some nearby airports with instrument procedures:

61C - Fort Atkinson Municipal Airport (7 nm N)
57C - East Troy Municipal Airport (17 nm E)
KJVL - Southern Wisconsin Regional Airport (19 nm SW)
KRYV - Watertown Municipal Airport (19 nm N)
C02 - Grand Geneva Resort Airport (22 nm SE)
 
Loc | Ops | Rwys | IFR | FBO | Links
Com | Nav | Svcs | Stats | Notes
Area around 5Y3 (Gutzmer's Twin Oaks Airport)
 
Road maps at: MapQuest Bing Google
 
Aerial photo
WARNING: Photo may not be current or correct
Aerial photo of 5Y3 (Gutzmer's Twin Oaks Airport)
Do you have a better or more recent aerial photo of Gutzmer's Twin Oaks Airport that you would like to share? If so, please send us your photo.

 
Sectional chart

 
Airport distance calculator
Flying to Gutzmer's Twin Oaks Airport? Find the distance to fly.

From to 5Y3

Sunrise and sunset
Times for 22-Feb-2020
 Local
(UTC-6)
 Zulu
(UTC)
Morning civil twilight06:1412:14
Sunrise06:4312:43
Sunset17:3423:34
Evening civil twilight18:0300:03

Current date and time
Zulu (UTC)  22-Feb-2020 16:33:45
Local (UTC-6)  22-Feb-2020 10:33:45
 
METAR
K57C 
17nm E 
221615Z AUTO 25009KT 10SM CLR 02/M06 A3015 RMK AO2 T00151062
KJVL 
18nm SW 
221545Z 24010G15KT 10SM SKC 01/M06 A3017
KRYV 
19nm N 
221615Z AUTO 23011KT 10SM CLR 00/M06 A3014 RMK AO2 T00001062
KBUU 
23nm SE 
221615Z AUTO 00000KT 10SM CLR 01/M06 A3017 RMK AO2 T00131062
KUES 
29nm E 
221545Z 24011G15KT 10SM SKC 00/M07 A3015
KMSN 
31nm NW 
221553Z 25006KT 10SM CLR 00/M07 A3013 RMK AO2 SLP215 T00001067
KUNU 
34nm N 
221615Z AUTO 20008KT 10SM CLR M02/M07 A3013 RMK AO2 T10221067
TAF
KUES 
29nm E 
221120Z 2212/2312 24009KT P6SM SKC FM221600 24011G18KT P6SM SKC FM230000 22007KT P6SM BKN200 FM231100 23009KT P6SM FEW025
KMSN 
31nm NW 
221617Z 2216/2312 23007KT P6SM SKC FM221800 20010G15KT P6SM FEW200 FM230100 19006KT P6SM SCT200 FM230600 21009KT P6SM FEW250 FM231100 22007KT P6SM SCT025
NOTAMs
Click for the latest NOTAMs
NOTAMs are issued by the DoD/FAA and will open in a separate window not controlled by AirNav.

 

 
 

Would you like to see your business listed on this page?

 If your business provides an interesting product or service to pilots, flight crews, aircraft, or users of the Gutzmer's Twin Oaks Airport, you should consider listing it here.  To start the listing process, click on the button below
 
Add a business
 

Other Pages about Gutzmer's Twin Oaks Airport

Page from the Wisconsin airport directory (PDF)
 
Update a link
 
Copyright © AirNav, LLC. All rights reserved. Privacy Policy  Contact